FW9604 Weather Reports


time (UTC)temp
C
wind
direction
speed
KPH
gust
KPH
rain 1hr
cm
rain 24hr
cm
rain mn
cm
humidity
%
barometer
mb
20260506010031 8 334 3.2 12.9 0.00 0.00 0.00 77 1014.4
20260506004531 8 288 3.2 14.5 0.00 0.00 0.00 76 1014.5
20260506003034 8 314 4.8 14.5 0.00 0.00 0.00 75 1014.5
20260506001536 8 336 3.2 12.9 0.00 0.00 0.00 75 1014.7
20260506000032 8 320 1.6 16.1 0.00 0.00 0.00 75 1015.0
20260505234535 9 314 3.2 16.1 0.00 0.00 0.00 74 1014.7
20260505233028 9 234 3.2 11.3 0.00 0.00 0.00 74 1014.8
20260505231532 9 292 4.8 16.1 0.00 0.00 0.00 73 1015.0
20260505230048 9 360 4.8 16.1 0.00 0.00 0.00 74 1015.0
20260505224530 9 9 6.4 14.5 0.00 0.00 0.00 75 1015.0
20260505223030 9 360 6.4 17.7 0.00 0.00 0.00 76 1014.9
20260505221534 9 355 4.8 16.1 0.00 0.00 0.00 76 1015.0
20260505220027 9 325 6.4 20.9 0.00 0.00 0.00 76 1015.1
20260505214532 9 22 4.8 20.9 0.00 0.00 0.00 75 1015.2
20260505213048 9 313 6.4 17.7 0.00 0.00 0.00 74 1015.1
20260505211528 9 279 6.4 17.7 0.00 0.00 0.00 72 1015.2
20260505210030 9 340 4.8 19.3 0.00 0.00 0.00 72 1015.1
20260505204530 10 298 6.4 17.7 0.00 0.00 0.00 73 1015.0
20260505203041 10 15 3.2 12.9 0.00 0.00 0.00 74 1015.0
20260505201530 10 313 3.2 16.1 0.00 0.00 0.00 75 1015.0
20260505200035 10 5 3.2 16.1 0.00 0.00 0.00 76 1014.9
20260505194528 10 214 4.8 16.1 0.00 0.00 0.00 75 1014.9
20260505193028 10 13 4.8 17.7 0.00 0.00 0.00 76 1014.9
20260505191532 10 342 4.8 22.5 0.00 0.00 0.00 75 1014.9
20260505190032 10 310 6.4 17.7 0.00 0.00 0.00 75 1014.7
20260505184530 10 11 8.0 19.3 0.00 0.00 0.00 75 1014.7
20260505183027 10 14 4.8 17.7 0.00 0.00 0.00 75 1014.8
20260505181530 10 342 4.8 16.1 0.00 0.00 0.00 77 1014.7
20260505180030 10 49 6.4 19.3 0.00 0.00 0.00 77 1014.9
20260505174531 11 336 6.4 19.3 0.00 0.00 0.00 78 1015.0
20260505173040 11 28 8.0 17.7 0.00 0.00 0.00 76 1015.0
20260505171528 11 15 6.4 17.7 0.00 0.00 0.00 76 1015.1
20260505170029 11 9 8.0 17.7 0.00 0.00 0.00 75 1015.0
20260505164546 11 355 4.8 17.7 0.00 0.00 0.00 74 1015.2
20260505163028 11 305 4.8 16.1 0.00 0.00 0.00 74 1015.1
20260505161530 11 74 4.8 17.7 0.00 0.00 0.00 74 1015.2
20260505153044 12 319 4.8 19.3 0.00 0.00 0.00 75 1015.2
20260505151539 12 269 4.8 17.7 0.00 0.00 0.00 75 1015.2
20260505124531 13 360 4.8 16.1 0.00 0.00 0.00 71 1015.4
20260505123030 14 5 4.8 16.1 0.00 0.00 0.00 73 1015.4
20260505121531 14 76 4.8 17.7 0.00 0.00 0.00 71 1015.3
20260505120030 15 102 3.2 12.9 0.00 0.00 0.00 73 1015.4
20260505114537 14 300 3.2 20.9 0.00 0.00 0.00 75 1015.4
20260505113029 13 316 4.8 16.1 0.00 0.00 0.00 74 1015.4
20260505111533 13 351 4.8 14.5 0.00 0.00 0.00 75 1015.5
20260505100041 14 280 6.4 14.5 0.00 0.00 0.00 73 1015.5
20260505094531 14 63 3.2 12.9 0.00 0.00 0.00 75 1015.5
20260505093033 14 164 3.2 12.9 0.00 0.00 0.00 76 1015.5
20260505091527 13 286 3.2 12.9 0.00 0.00 0.00 76 1015.7
20260505090048 13 330 3.2 14.5 0.00 0.00 0.00 77 1015.6
20260505084536 13 327 3.2 16.1 0.00 0.00 0.00 78 1015.6
20260505083040 13 326 4.8 12.9 0.00 0.00 0.00 77 1015.6
20260505081548 13 121 4.8 17.7 0.00 0.00 0.00 77 1015.7
20260505080038 13 310 3.2 12.9 0.00 0.00 0.00 78 1015.5
20260505074527 13 344 3.2 12.9 0.00 0.00 0.00 79 1015.5
20260505073030 12 355 3.2 9.7 0.00 0.00 0.00 80 1015.5
20260505071531 12 292 1.6 11.3 0.00 0.00 0.00 81 1015.6
20260505070031 11 323 1.6 12.9 0.00 0.00 0.00 82 1015.5
20260505064527 11 261 3.2 16.1 0.00 0.00 0.00 83 1015.5
20260505063035 11 352 3.2 12.9 0.00 0.00 0.00 84 1015.6
20260505061538 10 257 3.2 14.5 0.00 0.00 0.00 84 1015.4
20260505060028 10 321 3.2 12.9 0.00 0.00 0.00 85 1015.4
20260505054530 10 333 3.2 14.5 0.00 0.00 0.00 85 1015.4
20260505053030 10 346 4.8 16.1 0.00 0.00 0.00 86 1015.4
20260505051530 10 304 3.2 14.5 0.00 0.00 0.00 87 1015.2
20260505041530 10 9 4.8 17.7 0.00 0.00 0.00 88 1015.1
20260505040029 10 265 4.8 12.9 0.00 0.00 0.00 87 1015.1
20260505034529 10 311 3.2 12.9 0.00 0.00 0.00 87 1015.1
20260505033035 10 0 4.8 12.9 0.00 0.00 0.00 86 1015.1
20260505031530 10 309 4.8 14.5 0.00 0.00 0.00 86 1015.2
20260505030028 11 290 4.8 16.1 0.00 0.00 0.00 85 1015.1
20260505024550 11 254 1.6 12.9 0.00 0.00 0.00 85 1015.0
20260505023038 11 308 4.8 16.1 0.00 0.00 0.00 85 1014.9
20260505021544 11 311 3.2 9.7 0.00 0.00 0.00 85 1014.8
20260505020030 11 227 1.6 19.3 0.00 0.00 0.00 85 1014.7
20260505014530 11 349 3.2 12.9 0.00 0.00 0.00 86 1015.0
20260505013029 11 13 3.2 14.5 0.00 0.00 0.00 87 1015.2
20260505011544 11 341 4.8 12.9 0.00 0.00 0.00 87 1015.3